Location: Newark
(12.4436°N, 0.6167°W)
Time: 01:24:17
(UTC+00:00)

Vanguard 2 - Pass Details

Date: 16 December 2019
Orbit: 553 x 2938 km, 32.9° (Epoch: 28 January)

Event Time Altitude Azimuth Distance (km) Brightness Sun altitude
Rises 07:43:29 0° 296° (WNW) 6,761 11.7 18.3°
Reaches altitude 10° 07:48:20 10° 293° (WNW) 5,634 11.4 19.3°
Maximum altitude 08:04:14 56° 221° (SW) 2,549 10.4 22.6°
Drops below altitude 10° 08:14:42 10° 145° (SE) 3,820 12.5 24.8°
Sets 08:17:21 0° 140° (SE) 4,525 12.7 25.3°
